Weather reports worldwide

Advertisment
Weybourne, United Kingdom (3488): temperature & dewpoint: 25.10.2020 04:00:00 - 31.10.2020 04:00:00 (GMT)Weybourne, United Kingdom (3488): wind speed & gusts: 25.10.2020 04:00:00 - 31.10.2020 04:00:00 (GMT)Weybourne, United Kingdom (3488): wind direction: 25.10.2020 04:00:00 - 31.10.2020 04:00:00 (GMT)Weybourne, United Kingdom (3488): reduced air pressure: 25.10.2020 04:00:00 - 31.10.2020 04:00:00 (GMT)Weybourne, United Kingdom (3488): visibility: 25.10.2020 04:00:00 - 31.10.2020 04:00:00 (GMT)Weybourne, United Kingdom (3488): sunshine duration: 25.10.2020 04:00:00 - 31.10.2020 04:00:00 (GMT)Weybourne, United Kingdom (3488): precipitation: 25.10.2020 04:00:00 - 31.10.2020 04:00:00 (GMT)
Date & Time tt [°C] td [°C] ff [km/h] ff [kn] fx [km/h] fx [kn] dd ppp [hPa] vv [km] sd [min] rr [mm]
31.10.2020 04:00:00 13,9 12,7 22 12 - - S 1015,0 50 0 0,0
31.10.2020 03:00:00 14,0 13,4 21 11 - - S 1015,6 18 0 0,0
31.10.2020 02:00:00 14,0 13,5 21 11 - - S 1016,4 5 0 0,0
31.10.2020 01:00:00 13,9 13,4 16 9 - - S 1017,0 5 0 0,0
31.10.2020 00:00:00 13,6 13,0 9 5 - - SSE 1017,7 30 - 0,0
30.10.2020 23:00:00 12,7 11,6 11 6 - - SSE 1017,8 50 0 0,0
30.10.2020 22:00:00 12,6 11,9 2 1 - - SE 1018,2 45 0 0,0
30.10.2020 21:00:00 13,0 12,3 4 2 - - SW 1018,3 28 0 0,4
30.10.2020 20:00:00 13,4 12,6 9 5 - - W 1017,9 35 0 0,8
30.10.2020 19:00:00 14,0 12,6 11 6 - - W 1017,1 40 0 0,0
30.10.2020 18:00:00 15,6 13,7 22 12 - - SSW 1016,3 50 0 0,0
30.10.2020 17:00:00 15,6 13,5 21 11 - - SSW 1015,5 50 0 0,0
30.10.2020 16:00:00 15,9 13,4 26 14 - - SW 1015,0 50 0 0,0
30.10.2020 15:00:00 16,0 13,4 29 16 46 25 SW 1014,3 40 0 0,0
30.10.2020 14:00:00 16,1 13,4 31 17 54 29 SW 1013,7 50 0 0,0
30.10.2020 13:00:00 16,1 13,2 37 20 55 30 SW 1012,9 45 0 0,0
30.10.2020 12:00:00 15,7 13,0 35 19 52 28 SW 1012,7 45 0 0,0
30.10.2020 11:00:00 15,6 12,9 31 17 50 27 SW 1012,9 40 0 0,0
30.10.2020 10:00:00 15,0 12,9 31 17 52 28 SW 1012,4 20 0 0,0
30.10.2020 09:00:00 15,0 12,4 34 18 50 27 SSW 1011,6 35 0 0,0
30.10.2020 08:00:00 14,8 12,1 34 18 52 28 SW 1011,0 40 0 0,0
30.10.2020 07:00:00 14,7 12,0 37 20 54 29 SW 1010,3 35 0 0,0
30.10.2020 06:00:00 14,5 12,0 37 20 59 32 SW 1009,6 40 0 0,0
30.10.2020 05:00:00 14,5 12,0 39 21 59 32 SW 1009,7 35 0 0,0
30.10.2020 04:00:00 14,1 12,1 39 21 61 33 SW 1009,1 40 0 0,2
30.10.2020 03:00:00 14,1 11,7 39 21 59 32 SW 1008,8 40 0 0,0
30.10.2020 02:00:00 14,1 11,7 41 22 57 31 SW 1008,3 45 0 0,0
30.10.2020 01:00:00 13,5 12,0 41 22 65 35 SW 1008,6 50 0 0,6
30.10.2020 00:00:00 13,9 11,9 41 22 59 32 SW 1008,4 26 - 0,0
29.10.2020 23:00:00 14,0 11,7 35 19 57 31 SW 1008,2 30 0 0,0
29.10.2020 22:00:00 13,9 11,7 41 22 63 34 SW 1007,8 50 0 0,0
29.10.2020 21:00:00 13,9 11,7 41 22 57 31 SW 1007,7 45 0 0,0
29.10.2020 20:00:00 13,7 11,6 41 22 54 29 SW 1007,7 50 0 0,0
29.10.2020 19:00:00 13,5 11,6 35 19 52 28 SW 1007,6 50 0 0,0
29.10.2020 18:00:00 13,1 11,7 37 20 50 27 SW 1007,4 50 0 0,0
29.10.2020 17:00:00 12,8 11,9 31 17 46 25 SW 1007,6 50 0 0,4
29.10.2020 16:00:00 12,6 11,8 29 16 - - SSW 1007,7 22 0 0,8
29.10.2020 15:00:00 12,0 11,4 29 16 48 26 SSW 1007,9 17 0 0,6
29.10.2020 14:00:00 11,3 10,7 28 15 46 25 S 1008,3 10 0 1,0
29.10.2020 13:00:00 10,7 10,0 29 16 - - S 1009,1 9 0 0,6
29.10.2020 12:00:00 10,2 9,3 28 15 - - S 1010,2 14 0 0,6
29.10.2020 11:00:00 9,6 8,6 24 13 - - S 1011,1 15 0 0,2
29.10.2020 10:00:00 9,0 7,6 26 14 - - SSW 1011,3 16 0 0,2
29.10.2020 09:00:00 8,3 6,6 22 12 - - SSW 1011,3 16 0 0,2
29.10.2020 08:00:00 7,9 5,5 26 14 - - SSW 1010,6 9 0 0,0
29.10.2020 07:00:00 7,4 4,8 28 15 - - SW 1009,8 30 0 0,0
29.10.2020 06:00:00 7,2 4,6 34 18 - - SW 1009,1 40 0 0,0
29.10.2020 05:00:00 6,7 4,2 29 16 46 25 SW 1008,4 35 0 0,0
29.10.2020 04:00:00 6,7 4,2 29 16 - - SW 1007,5 50 0 0,0
29.10.2020 03:00:00 7,0 4,5 34 18 50 27 SW 1006,7 30 0 0,0
29.10.2020 02:00:00 6,9 4,7 35 19 50 27 SW 1005,7 45 0 0,0
29.10.2020 01:00:00 7,2 4,8 37 20 48 26 WSW 1004,9 45 0 0,0
29.10.2020 00:00:00 6,9 4,7 34 18 52 28 SW 1004,1 50 - 0,0
28.10.2020 23:00:00 7,1 4,6 31 17 - - SW 1003,3 50 0 0,0
28.10.2020 22:00:00 7,6 4,9 31 17 46 25 SW 1002,3 50 0 0,0
28.10.2020 21:00:00 7,7 5,6 26 14 46 25 SW 1001,7 50 0 0,0
28.10.2020 20:00:00 8,0 5,7 28 15 - - SW 1000,9 50 0 0,0
28.10.2020 19:00:00 7,9 5,8 22 12 - - SW 1000,5 50 0 0,0
28.10.2020 18:00:00 8,3 5,7 24 13 - - SSW 999,5 45 0 0,0
28.10.2020 17:00:00 10,0 6,3 34 18 - - SSW 998,9 45 0 0,0
28.10.2020 16:00:00 10,2 6,6 26 14 - - SW 999,0 40 30 0,0
28.10.2020 15:00:00 10,0 7,0 28 15 61 33 SSW 999,1 35 12 0,4
28.10.2020 14:00:00 12,9 7,5 26 14 50 27 SW 999,1 40 24 0,0
28.10.2020 13:00:00 12,5 7,2 34 18 57 31 SW 999,5 20 54 0,0
28.10.2020 12:00:00 11,7 6,6 35 19 54 29 SW 999,5 40 48 0,0
28.10.2020 11:00:00 12,0 6,7 34 18 55 30 SW 999,8 30 54 0,0
28.10.2020 10:00:00 10,5 6,1 35 19 50 27 SSW 999,7 50 18 0,0
28.10.2020 09:00:00 9,2 5,8 31 17 - - SW 999,6 40 54 0,0
28.10.2020 08:00:00 8,0 5,5 28 15 - - SSW 999,3 30 36 0,0
28.10.2020 07:00:00 7,4 5,2 29 16 - - SSW 998,6 35 0 0,0
28.10.2020 06:00:00 7,5 5,2 29 16 - - SSW 998,0 45 0 0,0
28.10.2020 05:00:00 7,8 5,3 29 16 46 25 SSW 998,1 35 0 0,0
28.10.2020 04:00:00 7,8 5,3 28 15 - - SSW 997,9 35 0 0,0
28.10.2020 03:00:00 7,9 5,6 28 15 - - SSW 997,6 26 0 0,0
28.10.2020 02:00:00 7,7 5,7 28 15 - - SSW 997,6 29 0 0,0
28.10.2020 01:00:00 7,7 5,5 28 15 - - SSW 997,5 29 0 0,0
28.10.2020 00:00:00 7,7 4,9 26 14 52 28 SW 997,3 30 - 0,0
27.10.2020 23:00:00 8,1 5,5 29 16 - - SW 996,5 35 0 0,0
27.10.2020 22:00:00 8,4 5,6 26 14 - - SW 995,9 27 0 0,0
27.10.2020 21:00:00 9,6 6,2 34 18 - - SW 995,1 50 0 0,0
27.10.2020 20:00:00 9,7 6,6 28 15 - - WSW 994,2 35 0 0,0
27.10.2020 19:00:00 10,9 8,3 26 14 48 26 WSW 993,0 50 0 0,0
27.10.2020 18:00:00 12,1 10,5 29 16 48 26 SW 991,6 30 0 0,2
27.10.2020 17:00:00 11,5 11,0 29 16 54 29 S 990,8 50 0 0,4
27.10.2020 16:00:00 11,1 10,5 35 19 61 33 S 990,7 5 0 1,0
27.10.2020 15:00:00 10,8 10,1 29 16 48 26 S 991,9 4,7 0 0,4
27.10.2020 14:00:00 10,6 9,8 28 15 - - SSE 993,4 3,7 0 0,0
27.10.2020 13:00:00 10,1 9,1 21 11 - - S 995,1 8 0 0,0
27.10.2020 12:00:00 9,8 7,8 24 13 - - S 996,4 35 0 0,0
27.10.2020 11:00:00 8,7 7,3 22 12 - - S 997,4 50 0 0,2
27.10.2020 10:00:00 8,5 6,5 24 13 - - SSW 998,0 50 0 0,0
27.10.2020 09:00:00 7,8 6,1 21 11 - - SSW 998,1 50 0 0,0
27.10.2020 08:00:00 7,1 6,0 24 13 - - SSW 998,5 40 12 0,0
27.10.2020 07:00:00 6,1 5,3 24 13 - - SSW 998,5 40 0 0,0
27.10.2020 06:00:00 5,9 4,9 26 14 - - SSW 998,6 30 0 0,0
27.10.2020 05:00:00 6,2 5,1 26 14 - - SSW 998,5 40 0 0,0
27.10.2020 04:00:00 6,3 5,1 28 15 - - SW 998,2 30 0 0,0
27.10.2020 03:00:00 6,7 5,2 26 14 - - SW 998,2 45 0 0,0
27.10.2020 02:00:00 7,1 5,4 28 15 - - SW 998,4 28 0 0,0
27.10.2020 01:00:00 7,2 5,5 26 14 - - SW 998,1 50 0 0,0
27.10.2020 00:00:00 7,5 5,6 28 15 - - SW 998,1 40 - 0,0
26.10.2020 23:00:00 7,9 5,9 29 16 - - SW 998,0 45 0 0,0
26.10.2020 22:00:00 7,9 6,0 28 15 - - SW 997,7 50 0 0,0
26.10.2020 21:00:00 8,0 6,0 26 14 - - SW 997,4 40 0 0,0
26.10.2020 20:00:00 8,1 6,4 26 14 - - SW 996,8 50 0 0,0
26.10.2020 19:00:00 7,8 6,6 22 12 - - SW 996,6 45 0 0,0
26.10.2020 18:00:00 8,1 7,2 21 11 - - SW 996,2 50 0 0,0
26.10.2020 17:00:00 9,0 7,5 22 12 - - SW 995,6 40 0 0,4
26.10.2020 16:00:00 8,9 7,3 26 14 52 28 SW 995,0 50 0 2,2
26.10.2020 15:00:00 11,9 7,8 26 14 46 25 WSW 994,5 50 36 0,0
26.10.2020 14:00:00 11,3 8,4 29 16 - - SW 994,0 30 12 0,0
26.10.2020 13:00:00 10,5 7,7 29 16 48 26 SW 994,0 40 6 0,0
26.10.2020 12:00:00 11,0 7,6 29 16 52 28 SSW 994,0 45 24 0,0
26.10.2020 11:00:00 11,0 7,2 28 15 - - SSW 994,0 30 54 0,0
26.10.2020 10:00:00 9,9 6,9 26 14 - - SSW 994,2 45 60 0,0
26.10.2020 09:00:00 8,5 6,2 26 14 - - SSW 994,1 50 60 0,0
26.10.2020 08:00:00 7,0 5,6 26 14 - - SSW 994,1 45 42 0,0
26.10.2020 07:00:00 6,1 5,0 26 14 - - S 993,9 40 0 0,0
26.10.2020 06:00:00 6,2 5,2 24 13 - - S 993,8 50 0 0,0
26.10.2020 05:00:00 6,4 5,4 24 13 - - SSW 993,7 50 0 0,0
26.10.2020 04:00:00 6,6 5,6 24 13 - - SSW 993,7 50 0 0,0
26.10.2020 03:00:00 6,8 5,7 24 13 - - SSW 993,9 35 0 0,0
26.10.2020 02:00:00 6,9 5,8 24 13 - - SSW 994,0 45 0 0,0
26.10.2020 01:00:00 7,2 6,1 26 14 - - SSW 994,5 50 0 0,0
26.10.2020 00:00:00 7,1 6,0 21 11 - - SSW 994,7 45 - 0,0
25.10.2020 23:00:00 7,7 6,4 21 11 - - S 995,0 50 0 0,0
25.10.2020 22:00:00 7,8 6,6 21 11 - - S 995,0 40 0 0,0
25.10.2020 21:00:00 8,2 6,6 22 12 - - S 995,2 45 0 0,0
25.10.2020 20:00:00 8,7 6,8 24 13 - - S 995,0 50 0 0,0
25.10.2020 19:00:00 9,1 6,5 22 12 - - S 995,1 50 0 0,0
25.10.2020 18:00:00 9,4 6,3 21 11 - - S 995,1 50 0 0,0
25.10.2020 17:00:00 9,7 5,8 15 8 - - S 994,9 50 12 0,0
25.10.2020 16:00:00 11,7 6,0 18 10 - - SSW 994,6 50 42 0,0
25.10.2020 15:00:00 12,3 6,6 26 14 - - SW 994,5 50 42 0,0
25.10.2020 14:00:00 13,0 7,0 29 16 48 26 SSW 994,2 40 60 0,0
25.10.2020 13:00:00 13,0 7,3 34 18 48 26 SW 994,7 50 54 0,0
25.10.2020 12:00:00 13,2 7,5 29 16 46 25 SSW 995,0 45 60 0,0
25.10.2020 11:00:00 12,2 8,0 26 14 - - SSW 995,3 40 18 0,0
25.10.2020 10:00:00 10,6 6,8 31 17 48 26 SSW 995,3 50 54 0,0
25.10.2020 09:00:00 10,3 6,8 29 16 - - SSW 995,4 50 60 0,0
25.10.2020 08:00:00 8,5 7,0 22 12 - - S 995,6 50 6 0,0
25.10.2020 07:00:00 8,1 6,7 22 12 - - S 994,7 50 0 0,0
25.10.2020 06:00:00 8,4 7,3 22 12 - - SSW 994,9 50 0 0,0
25.10.2020 05:00:00 9,0 8,1 22 12 - - SSW 994,8 40 0 0,0
25.10.2020 04:00:00 8,6 7,2 18 10 - - SSW 994,3 50 0 0,0

tt = temperature
td = dewpoint
ff = wind speed
fx = gusts
dd = wind direction
ppp = reduced air pressure
vv = visibility
sd = sunshine duration
rr = precipitation

Next stations